Flag for United Kingdom Weather past 2 weeks in Canvey Island, England, United Kingdom

Now
46 °F

Passing clouds.


Feels Like: 39 °F
Forecast: 42 / 50 °F
Wind: 18 mph from Southwest

Location: Southend Airport-On-Sea

Current Time: Mar 1, 2015 at 8:43:42 AM

Latest Report: Mar 1, 2015 at 8:20 AM


Visibility: N/A

Pressure: 29.53 "Hg

Humidity: 66%

Dew point: 36 °F

Location of Canvey IslandLocation

Historic Weather in Canvey Island — Graph

°F

Canvey Island temperature yesterday

Maximum temperature yesterday: 50 °F (at 11:50 PM)
Minimum temperature yesterday: 41 °F (at 1:50 AM)
Average temperature yesterday: 46 °F

Past Weeks' High & Low Weather Summary

 TemperatureHumidityPressure
High52 °F (Feb 25, 2:20 PM)94% (Feb 26, 5:20 AM)30.74 "Hg (Feb 26, 5:20 AM)
Low30 °F (Feb 22, 4:50 AM)43% (Feb 27, 2:20 PM)26.58 "Hg (Feb 23, 2:20 PM)
Average43 °F78%29.89 "Hg
* Reported Feb 14 7:20 AM — Mar 1 7:20 AM, Canvey Island, Weather by CustomWeather, © 2015

Note: Actual official high and low records may vary slightly from our data, if they occured in-between our weather recording intervals... More about our weather records

Advertising

Canvey Island weather history for previous 24 hours

 ConditionsComfort  
Time TempWeatherWind HumidityBarometerVisibility
7:20 AM
Sun, Mar 1
45 °FSunny.17 mph76%29.53 "Hg10 mi
6:50 AM45 °FSunny.16 mph71%29.53 "Hg10 mi
6:20 AM45 °FClear.16 mph71%29.50 "Hg10 mi
5:50 AM46 °FPassing clouds.16 mph71%29.50 "HgN/A
5:20 AM46 °FPassing clouds.17 mph71%29.50 "HgN/A
4:50 AM48 °FPassing clouds.20 mph66%29.47 "HgN/A
3:50 AM48 °FPassing clouds.20 mph66%29.45 "HgN/A
3:20 AM50 °FPassing clouds.24 mph62%29.45 "HgN/A
2:50 AM50 °FPassing clouds.23 mph88%29.42 "HgN/A
1:50 AM52 °FPassing clouds.15 mph82%29.42 "HgN/A
1:20 AM52 °FPassing clouds.17 mph82%29.42 "HgN/A
12:50 AM52 °FOvercast.20 mph82%29.42 "HgN/A
11:50 PM
Sat, Feb 28
50 °FLow clouds.22 mph88%29.42 "HgN/A
10:50 PM48 °FLow clouds.22 mph87%29.45 "HgN/A
10:20 PM48 °FLight rain. Low clouds.21 mph87%29.45 "Hg6 mi
9:50 PM48 °FLight rain. Low clouds.20 mph87%29.47 "Hg6 mi
9:20 PM48 °FLight rain. Passing clouds.20 mph87%29.50 "Hg6 mi
8:50 PM48 °FLight rain. Mostly cloudy.18 mph82%29.53 "Hg6 mi
8:20 PM48 °FLight rain. Passing clouds.22 mph82%29.56 "Hg6 mi
7:50 PM48 °FPassing clouds.21 mph82%29.56 "HgN/A
7:20 PM48 °FMostly cloudy.21 mph82%29.56 "HgN/A
6:50 PM48 °FPassing clouds.17 mph87%29.59 "Hg6 mi
6:20 PM48 °FOvercast.18 mph87%29.62 "Hg5 mi
5:50 PM48 °FDrizzle. Mostly cloudy.21 mph87%29.62 "Hg5 mi
5:20 PM48 °FDrizzle. More clouds than sun.21 mph87%29.62 "Hg5 mi
4:50 PM46 °FDrizzle. More clouds than sun.18 mph93%29.65 "Hg4 mi
4:20 PM46 °FDrizzle. More clouds than sun.18 mph93%29.65 "Hg6 mi
3:50 PM46 °FDrizzle. Partly sunny.18 mph87%29.68 "Hg3 mi
3:20 PM48 °FDrizzle. Partly sunny.23 mph82%29.68 "HgN/A
2:50 PM48 °FPartly sunny.20 mph82%29.71 "HgN/A
2:20 PM46 °FPartly sunny.17 mph87%29.71 "HgN/A
1:50 PM46 °FPartly sunny.18 mph87%29.74 "HgN/A
1:20 PM46 °FPartly sunny.17 mph87%29.74 "HgN/A
12:50 PM46 °FPartly sunny.17 mph87%29.77 "Hg4 mi
12:20 PM46 °FPartly sunny.17 mph87%29.80 "HgN/A
11:50 AM46 °FPartly sunny.18 mph82%29.83 "HgN/A
11:20 AM46 °FPartly sunny.18 mph82%29.83 "HgN/A
10:50 AM46 °FPartly sunny.17 mph82%29.86 "HgN/A
10:20 AM46 °FPartly sunny.17 mph82%29.86 "HgN/A
9:50 AM45 °FPartly sunny.17 mph87%29.89 "HgN/A
9:20 AM45 °FPartly sunny.16 mph81%29.89 "HgN/A
8:50 AM45 °FPartly sunny.17 mph81%29.89 "HgN/A
8:20 AM45 °FPartly sunny.20 mph81%29.89 "HgN/A
Weather by CustomWeather, © 2015

See weather overviewHow to use our weather pages